When you browse on this site, cookies collect data to enhance your experience and personalize the content and advertising you see.
Visit our Privacy Policy to learn more. By continuing to use the site, you agree to this use of cookies and data.
  • In Hungary
  • List of Countries
  • For 7 days
  • Water Temperature
  • Satellite Maps
  • Weather Map
  • News
  • Weather Widgets
  • user-avatar
    Login

    Hourly Weather Schwerin

    Today, 18 July, Thursday

    Time Temperature Precipitation Wind Pressure Humidity
    00:00 +14°C° 0 mm 1 mps 756 mmHg 91%
    01:00 +13°C° 0 mm 1 mps 756 mmHg 92%
    02:00 +13°C° 0 mm 1 mps 756 mmHg 93%
    03:00 +13°C° 0 mm 1 mps 756 mmHg 93%
    04:00 +13°C° 0 mm 1 mps 756 mmHg 94%
    05:00 +14°C° 0 mm 1 mps 756 mmHg 90%
    06:00 +16°C° 0 mm 2 mps 755 mmHg 86%
    07:00 +17°C° 0 mm 2 mps 755 mmHg 82%
    08:00 +19°C° 0 mm 2 mps 755 mmHg 76%
    09:00 +20°C° 0 mm 2 mps 755 mmHg 70%
    10:00 +23°C° 0 mm 2 mps 755 mmHg 64%
    11:00 +24°C° 0.2 mm 2 mps 755 mmHg 61%
    12:00 +24°C° 0.2 mm 3 mps 755 mmHg 57%
    13:00 +25°C° 0.2 mm 3 mps 755 mmHg 54%
    14:00 +25°C° 0.3 mm 3 mps 755 mmHg 56%
    15:00 +25°C° 0.3 mm 3 mps 755 mmHg 57%
    16:00 +25°C° 0.3 mm 3 mps 754 mmHg 59%
    17:00 +24°C° 0.3 mm 2 mps 754 mmHg 63%
    18:00 +23°C° 0.3 mm 2 mps 754 mmHg 67%
    19:00 +22°C° 0.3 mm 1 mps 754 mmHg 72%
    20:00 +21°C° 0.1 mm 1 mps 754 mmHg 74%
    21:00 +20°C° 0.1 mm 1 mps 754 mmHg 76%
    22:00 +18°C° 0.1 mm 1 mps 754 mmHg 79%
    23:00 +18°C° 0 mm 1 mps 754 mmHg 80%

    Tomorrow, 19 July, Friday

    Time Temperature Precipitation Wind Pressure Humidity
    00:00 +18°C° 0 mm 1 mps 754 mmHg 82%
    01:00 +16°C° 0 mm 2 mps 754 mmHg 84%
    02:00 +16°C° 0.1 mm 1 mps 754 mmHg 86%
    03:00 +16°C° 0.1 mm 1 mps 754 mmHg 88%
    04:00 +16°C° 0.1 mm 1 mps 755 mmHg 90%
    05:00 +18°C° 0.1 mm 1 mps 755 mmHg 89%
    06:00 +17°C° 0.1 mm 2 mps 755 mmHg 89%
    07:00 +18°C° 0.1 mm 2 mps 755 mmHg 88%
    08:00 +19°C° 0.1 mm 2 mps 755 mmHg 83%
    09:00 +20°C° 0.1 mm 3 mps 755 mmHg 78%
    10:00 +22°C° 0.1 mm 3 mps 755 mmHg 72%
    11:00 +22°C° 0.4 mm 3 mps 755 mmHg 72%
    12:00 +24°C° 0.4 mm 3 mps 755 mmHg 71%
    13:00 +24°C° 0.4 mm 3 mps 755 mmHg 70%
    14:00 +24°C° 1.2 mm 3 mps 755 mmHg 72%
    15:00 +24°C° 1.2 mm 3 mps 756 mmHg 74%
    16:00 +24°C° 1.2 mm 3 mps 756 mmHg 75%
    17:00 +22°C° 0.2 mm 3 mps 756 mmHg 77%
    18:00 +21°C° 0.2 mm 3 mps 756 mmHg 79%
    19:00 +21°C° 0.2 mm 2 mps 756 mmHg 81%
    20:00 +19°C° 0 mm 2 mps 756 mmHg 83%
    21:00 +18°C° 0 mm 2 mps 756 mmHg 85%
    22:00 +16°C° 0 mm 2 mps 756 mmHg 87%
    23:00 +16°C° 0 mm 1 mps 756 mmHg 87%

    Day after tomorrow, 20 July, Saturday

    Time Temperature Precipitation Wind Pressure Humidity
    00:00 +15°C° 0 mm 1 mps 756 mmHg 87%
    01:00 +13°C° 0 mm 0 mps 757 mmHg 87%
    02:00 +14°C° 0 mm 1 mps 757 mmHg 87%
    03:00 +14°C° 0 mm 1 mps 757 mmHg 87%
    04:00 +14°C° 0 mm 1 mps 757 mmHg 87%
    05:00 +15°C° 0 mm 1 mps 757 mmHg 85%
    06:00 +17°C° 0 mm 2 mps 756 mmHg 84%
    07:00 +18°C° 0 mm 2 mps 756 mmHg 82%
    08:00 +19°C° 0 mm 3 mps 756 mmHg 78%
    09:00 +21°C° 0 mm 3 mps 756 mmHg 74%
    10:00 +23°C° 0 mm 4 mps 756 mmHg 70%
    11:00 +25°C° 0 mm 4 mps 756 mmHg 66%
    12:00 +26°C° 0 mm 4 mps 756 mmHg 62%
    13:00 +27°C° 0 mm 5 mps 755 mmHg 57%
    14:00 +27°C° 1.3 mm 4 mps 755 mmHg 64%
    15:00 +26°C° 1.3 mm 4 mps 755 mmHg 70%
    16:00 +25°C° 1.3 mm 4 mps 755 mmHg 77%
    17:00 +25°C° 0.7 mm 3 mps 754 mmHg 79%
    18:00 +24°C° 0.7 mm 3 mps 754 mmHg 82%
    19:00 +24°C° 0.7 mm 2 mps 754 mmHg 85%
    20:00 +21°C° 0.8 mm 2 mps 755 mmHg 87%
    21:00 +21°C° 0.8 mm 1 mps 755 mmHg 89%
    22:00 +20°C° 0.8 mm 1 mps 755 mmHg 92%
    23:00 +20°C° 1.4 mm 1 mps 755 mmHg 93%

    21 July, Sunday

    Time Temperature Precipitation Wind Pressure Humidity
    00:00 +18°C° 1.4 mm 2 mps 755 mmHg 95%
    01:00 +18°C° 1.4 mm 2 mps 755 mmHg 97%
    02:00 +18°C° 0.3 mm 3 mps 755 mmHg 97%
    03:00 +18°C° 0.3 mm 3 mps 755 mmHg 97%
    04:00 +17°C° 0.3 mm 3 mps 755 mmHg 97%
    05:00 +18°C° 0 mm 4 mps 755 mmHg 94%
    06:00 +18°C° 0 mm 4 mps 756 mmHg 92%
    07:00 +19°C° 0 mm 5 mps 756 mmHg 89%
    08:00 +20°C° 0 mm 5 mps 756 mmHg 85%
    09:00 +21°C° 0 mm 5 mps 757 mmHg 80%
    10:00 +22°C° 0 mm 6 mps 757 mmHg 76%
    11:00 +22°C° 0.1 mm 6 mps 758 mmHg 74%
    12:00 +23°C° 0.1 mm 6 mps 758 mmHg 72%
    13:00 +23°C° 0.1 mm 6 mps 758 mmHg 71%
    14:00 +23°C° 0.2 mm 6 mps 759 mmHg 71%
    15:00 +23°C° 0.2 mm 5 mps 759 mmHg 71%
    16:00 +23°C° 0.2 mm 5 mps 759 mmHg 71%
    17:00 +22°C° 0.1 mm 5 mps 759 mmHg 74%
    18:00 +22°C° 0.1 mm 4 mps 760 mmHg 76%
    19:00 +21°C° 0.1 mm 4 mps 760 mmHg 79%
    20:00 +20°C° 0 mm 4 mps 761 mmHg 84%
    21:00 +18°C° 0 mm 4 mps 761 mmHg 89%
    22:00 +17°C° 0 mm 3 mps 762 mmHg 93%
    23:00 +16°C° 0 mm 3 mps 762 mmHg 95%

    22 July, Monday

    Time Temperature Precipitation Wind Pressure Humidity
    00:00 +14°C° 0 mm 3 mps 762 mmHg 96%
    01:00 +14°C° 0 mm 3 mps 762 mmHg 98%
    02:00 +13°C° 0 mm 3 mps 762 mmHg 98%
    03:00 +14°C° 0 mm 2 mps 762 mmHg 98%
    04:00 +14°C° 0 mm 2 mps 762 mmHg 98%
    05:00 +15°C° 0 mm 2 mps 763 mmHg 96%
    06:00 +16°C° 0 mm 3 mps 763 mmHg 94%
    07:00 +16°C° 0 mm 3 mps 763 mmHg 92%
    08:00 +17°C° 0 mm 2 mps 764 mmHg 89%
    09:00 +18°C° 0 mm 2 mps 764 mmHg 85%
    10:00 +19°C° 0 mm 2 mps 764 mmHg 82%
    11:00 +20°C° 0 mm 2 mps 764 mmHg 78%
    12:00 +21°C° 0 mm 2 mps 764 mmHg 73%
    13:00 +24°C° 0 mm 2 mps 764 mmHg 68%
    14:00 +24°C° 0 mm 2 mps 764 mmHg 65%
    15:00 +25°C° 0 mm 2 mps 764 mmHg 62%
    16:00 +25°C° 0 mm 1 mps 764 mmHg 59%
    17:00 +24°C° 0 mm 2 mps 764 mmHg 65%
    18:00 +23°C° 0 mm 2 mps 764 mmHg 72%
    19:00 +23°C° 0 mm 2 mps 764 mmHg 78%
    20:00 +20°C° 0 mm 2 mps 764 mmHg 81%
    21:00 +18°C° 0 mm 2 mps 764 mmHg 84%
    22:00 +17°C° 0 mm 2 mps 764 mmHg 88%
    23:00 +16°C° 0 mm 1 mps 764 mmHg 87%

    23 July, Tuesday

    Time Temperature Precipitation Wind Pressure Humidity
    00:00 +16°C° 0 mm 1 mps 764 mmHg 86%
    01:00 +15°C° 0 mm 1 mps 764 mmHg 85%
    02:00 +15°C° 0 mm 1 mps 764 mmHg 85%
    03:00 +15°C° 0 mm 1 mps 764 mmHg 86%
    04:00 +14°C° 0 mm 1 mps 764 mmHg 86%
    05:00 +16°C° 0 mm 1 mps 764 mmHg 82%
    06:00 +18°C° 0 mm 1 mps 764 mmHg 77%
    07:00 +20°C° 0 mm 1 mps 764 mmHg 73%
    08:00 +21°C° 0 mm 1 mps 764 mmHg 68%
    09:00 +23°C° 0 mm 1 mps 764 mmHg 62%
    10:00 +24°C° 0 mm 2 mps 764 mmHg 57%
    11:00 +25°C° 0 mm 2 mps 764 mmHg 54%
    12:00 +26°C° 0 mm 2 mps 764 mmHg 51%
    13:00 +27°C° 0 mm 2 mps 763 mmHg 48%
    14:00 +28°C° 0 mm 2 mps 763 mmHg 49%
    15:00 +28°C° 0 mm 2 mps 763 mmHg 50%
    16:00 +28°C° 0 mm 3 mps 763 mmHg 51%
    17:00 +27°C° 0 mm 3 mps 763 mmHg 57%
    18:00 +26°C° 0 mm 3 mps 762 mmHg 64%
    19:00 +25°C° 0 mm 3 mps 762 mmHg 71%
    20:00 +22°C° 0 mm 3 mps 762 mmHg 76%
    21:00 +20°C° 0 mm 3 mps 762 mmHg 82%
    22:00 +18°C° 0 mm 3 mps 762 mmHg 87%
    23:00 +18°C° 0 mm 3 mps 762 mmHg 88%
    Show more